Location: Cointrin
(46.2167°N, 6.1167°E)
Time: 19:58:58
(UTC+00:00)

Cosmos 1869 - Pass Details

Date: 08 February 2023
Orbit: 510 x 550 km, 82.5° (Epoch: 21 March)

Event Time Altitude Azimuth Distance (km) Brightness Sun altitude
Rises 18:12:28 0° 344° (NNW) 2,677 7.0 -14.6°
Reaches altitude 10° 18:14:40 10° 338° (NNW) 1,790 6.1 -15.0°
Maximum altitude 18:18:24 43° 267° (W) 758 4.6 -15.6°
Drops below altitude 10° 18:22:10 10° 195° (SSW) 1,800 6.2 -16.3°
Sets 18:24:23 0° 188° (S) 2,694 7.0 -16.6°
